Regional Weather Roundup
Issued by NWS Green Bay, WI

Home | Current Version | Previous Version | Text Only | Print | Product List | Glossary On
Versions: 1 2 3 4 5 6 7 8 9 10 11 12 13 14 15 16 17 18 19 20 21 22 23 24 25 26 27 28 29 30 31 32 33 34 35 36 37 38 39 40 41 42 43 44 45 46 47 48 49 50
000
ASUS43 KGRB 061511
RWRGRB

NORTH-CENTRAL AND NORTHEAST WISCONSIN REGIONAL WEATHER ROUNDUP
NATIONAL WEATHER SERVICE GREEN BAY WI
1000 AM CDT MON JUL 06 2015

WIZ005-009-010>012-018-019-061600-
NORTH CENTRAL WISCONSIN

CITY           SKY/WX    TMP DP  RH WIND       PRES   REMARKS
IRONWOOD       CLOUDY    66  66 100 N6        29.81S
MANITOWISH WTR DRIZZLE   67  67 100 CALM      29.85F
ARBOR VITAE    RAIN      69  67  94 S6        29.85F
EAGLE RIVER    LGT RAIN  66  66 100 CALM      29.86F
LAND O LAKES   LGT RAIN  68  67  97 SE3       29.87F
RHINELANDER    LGT RAIN  67  66  97 S6        29.87F FOG
PHILLIPS       DRIZZLE   67  67  99 SE5       29.83R
ANTIGO         CLOUDY    66  65  96 S6        29.89F FOG
TOMAHAWK       LGT RAIN  67  65  96 CALM      29.86F
MERRILL        CLOUDY    67  67 100 SE3       29.86F FOG
$$

WIZ013-073-061600-
NORTHEAST WISCONSIN

CITY           SKY/WX    TMP DP  RH WIND       PRES   REMARKS
IRON MOUNTAIN  CLOUDY    70  65  84 S6        29.87R HAZE
MARINETTE      CLOUDY    73  64  73 SW12      29.86F
OCONTO         CLOUDY    74  69  82 S10       29.87S
$$

WIZ017-030-035>037-045-061600-
CENTRAL WISCONSIN

CITY           SKY/WX    TMP DP  RH WIND       PRES   REMARKS
MEDFORD        RAIN      66  66  99 SE8       29.85S
WAUSAU         CLOUDY    69  66  90 SW7       29.86R FOG
MOSINEE        LGT RAIN  68  68 100 S14       29.89R
MARSHFIELD     LGT RAIN  70  66  87 S7        29.86F FOG
WISC RAPIDS    RAIN      70  67  90 W6        29.90R FOG
STEVENS POINT  RAIN      67  66  97 SW7       29.89R
WAUPACA        LGT RAIN  74  71  89 SW6       29.88R
SHAWANO        CLOUDY    74  66  75 SW6       29.88R
CLINTONVILLE   CLOUDY    72  64  78 SW6       29.87R
$$

WIZ038-039-048-051-061600-
FOX VALLEY

CITY           SKY/WX    TMP DP  RH WIND       PRES   REMARKS
NWS GREEN BAY  CLOUDY    76  68  76 S10       29.88F HAZE
APPLETON       CLOUDY    73  64  73 S12       29.88F HAZE
OSHKOSH        CLOUDY    75  68  78 S15G22    29.87F HAZE
FOND DU LAC    CLOUDY    77  68  73 S12       29.89F
$$

WIZ022-050-052-061600-
EAST CENTRAL WISCONSIN

CITY           SKY/WX    TMP DP  RH WIND       PRES   REMARKS
STURGEON BAY   CLOUDY    70  63  78 S14       29.91S
MANITOWOC      CLOUDY    70  64  81 MISG      29.91F HAZE
SHEBOYGAN      CLOUDY    74  66  76 S13       29.92F HAZE
$$

LMZ563-521-522-541>543-061600-
LAKESHORE

STATION/POSITION TIME  TEMP    WIND        PRES    VSBY  WAVE
                       AIR SEA DIR/SP/G                  HT/PER
                 (UTC) (F)     (DEG/KT/KT) (MB)    (MI)  (FT/S)
SHEBOYGAN LKSHOR 1500   64     180/ 18/ 19 1013.1F
KEWAUNEE LKSHORE 1400   60     180/ 11/ 13 1012.4F
ALGOMA MARINA    1441          210/ 11/ 13   N/A
NORTHPORT PIER   1400   67     170/  8/ 13 1012.2F
N MID LAKE BUOY  1450   59 55  190/ 16/ 19 1012.2F         2/ 4
S GREEN BAY BUOY 1500   72 69  180/ 12/ 14 1013.1S
SISTER BAY LKSHO 1414   71     190/ 14/ 17   N/A
CHAMBERS ISLAND  1400   71     160/  4/  9 1011.9F
MENOMINEE LKSHOR 1400   69     170/  8/ 10 1012.5S
$$


USA.gov is the U.S. government's official web portal to all federal, state and local government web resources and services.